| time (UTC) | temp F | wind direction | speed MPH | gust MPH | rain 1hr in | rain 24hr in | rain mn in | humidity % | barometer mb |
| 20260505184228 | 51 | 96 | 1.0 | 7.0 | 0.14 | 0.34 | 0.34 | 90 | 1009.4 |
| 20260505183713 | 51 | 164 | 1.0 | 7.0 | 0.14 | 0.34 | 0.34 | 90 | 1009.4 |
| 20260505183226 | 51 | 146 | 1.0 | 5.0 | 0.14 | 0.34 | 0.34 | 90 | 1009.5 |
| 20260505182728 | 51 | 136 | 2.0 | 5.0 | 0.13 | 0.33 | 0.33 | 90 | 1009.5 |
| 20260505182213 | 51 | 131 | 1.0 | 5.0 | 0.13 | 0.33 | 0.33 | 89 | 1009.3 |
| 20260505181714 | 51 | 142 | 1.0 | 5.0 | 0.13 | 0.32 | 0.32 | 89 | 1009.4 |
| 20260505181214 | 51 | 139 | 0.0 | 8.0 | 0.12 | 0.31 | 0.31 | 88 | 1009.7 |
| 20260505180729 | 51 | 140 | 1.0 | 10.0 | 0.12 | 0.31 | 0.31 | 87 | 1009.5 |
| 20260505180221 | 52 | 113 | 1.0 | 10.0 | 0.10 | 0.30 | 0.30 | 86 | 1009.5 |
| 20260505175214 | 53 | 40 | 1.0 | 3.0 | 0.06 | 0.25 | 0.25 | 86 | 1009.3 |
| 20260505174723 | 53 | 339 | 0.0 | 0.0 | 0.00 | 0.20 | 0.20 | 87 | 1009.4 |
| 20260505174221 | 53 | 161 | 0.0 | 0.0 | 0.00 | 0.20 | 0.20 | 86 | 1009.0 |
| 20260505173707 | 53 | 159 | 0.0 | 4.0 | 0.00 | 0.20 | 0.20 | 85 | 1009.0 |
| 20260505173223 | 53 | 162 | 0.0 | 4.0 | 0.00 | 0.20 | 0.20 | 85 | 1009.0 |
| 20260505172713 | 53 | 154 | 0.0 | 4.0 | 0.00 | 0.20 | 0.20 | 85 | 1009.0 |
| 20260505171711 | 53 | 138 | 0.0 | 3.0 | 0.00 | 0.20 | 0.20 | 85 | 1009.0 |
| 20260505170713 | 54 | 113 | 0.0 | 3.0 | 0.00 | 0.21 | 0.20 | 86 | 1008.9 |
| 20260505170207 | 54 | 139 | 0.0 | 3.0 | 0.00 | 0.21 | 0.20 | 86 | 1009.0 |
| 20260505165726 | 53 | 140 | 0.0 | 0.0 | 0.00 | 0.22 | 0.20 | 86 | 1009.0 |
| 20260505165212 | 53 | 186 | 0.0 | 0.0 | 0.00 | 0.22 | 0.20 | 86 | 1009.0 |
| 20260505164715 | 53 | 133 | 0.0 | 0.0 | 0.00 | 0.23 | 0.20 | 87 | 1009.0 |
| 20260505164207 | 53 | 123 | 0.0 | 6.0 | 0.00 | 0.23 | 0.20 | 87 | 1009.1 |
| 20260505163715 | 53 | 125 | 1.0 | 6.0 | 0.00 | 0.23 | 0.20 | 87 | 1009.2 |
| 20260505163215 | 53 | 143 | 1.0 | 6.0 | 0.00 | 0.23 | 0.20 | 87 | 1009.1 |
| 20260505162729 | 53 | 179 | 1.0 | 7.0 | 0.00 | 0.24 | 0.20 | 86 | 1009.1 |
| 20260505162227 | 54 | 132 | 3.0 | 7.0 | 0.00 | 0.24 | 0.20 | 86 | 1009.0 |
| 20260505161721 | 54 | 145 | 3.0 | 7.0 | 0.00 | 0.24 | 0.20 | 86 | 1009.0 |
| 20260505161224 | 54 | 125 | 2.0 | 6.0 | 0.00 | 0.24 | 0.20 | 87 | 1009.0 |
| 20260505160718 | 54 | 127 | 2.0 | 8.0 | 0.00 | 0.24 | 0.20 | 86 | 1009.1 |
| 20260505160228 | 53 | 109 | 3.0 | 8.0 | 0.00 | 0.24 | 0.20 | 86 | 1009.0 |
| 20260505152728 | 53 | 143 | 1.0 | 5.0 | 0.17 | 0.24 | 0.20 | 89 | 1009.0 |
| 20260505152220 | 53 | 179 | 1.0 | 5.0 | 0.17 | 0.24 | 0.20 | 88 | 1009.0 |
| 20260505151722 | 53 | 107 | 1.0 | 5.0 | 0.17 | 0.24 | 0.20 | 89 | 1009.0 |
| 20260505151209 | 53 | 167 | 1.0 | 4.0 | 0.17 | 0.24 | 0.20 | 88 | 1009.0 |
| 20260505150226 | 53 | 157 | 0.0 | 0.0 | 0.17 | 0.24 | 0.20 | 86 | 1009.1 |
| 20260505140243 | 60 | 281 | 4.0 | 10.0 | 0.00 | 0.07 | 0.02 | 66 | 1008.5 |
| 20260505130219 | 59 | 126 | 2.0 | 8.0 | 0.00 | 0.07 | 0.02 | 71 | 1008.7 |
| 20260505124720 | 58 | 111 | 0.0 | 0.0 | 0.00 | 0.07 | 0.02 | 73 | 1008.8 |
| 20260505124229 | 58 | 165 | 0.0 | 0.0 | 0.00 | 0.07 | 0.02 | 76 | 1008.7 |
| 20260505123720 | 58 | 215 | 0.0 | 0.0 | 0.00 | 0.07 | 0.02 | 77 | 1008.8 |
| 20260505123222 | 58 | 161 | 0.0 | 0.0 | 0.00 | 0.07 | 0.02 | 84 | 1008.8 |
| 20260505122719 | 57 | 171 | 0.0 | 0.0 | 0.00 | 0.07 | 0.02 | 83 | 1009.0 |
| 20260505122227 | 56 | 130 | 0.0 | 0.0 | 0.00 | 0.07 | 0.02 | 85 | 1009.0 |
| 20260505121722 | 55 | 167 | 0.0 | 0.0 | 0.01 | 0.07 | 0.02 | 85 | 1009.0 |
| 20260505121223 | 55 | 175 | 0.0 | 0.0 | 0.01 | 0.07 | 0.02 | 85 | 1009.1 |
| 20260505120719 | 55 | 179 | 0.0 | 0.0 | 0.01 | 0.07 | 0.02 | 85 | 1009.1 |
| 20260505120212 | 55 | 171 | 0.0 | 0.0 | 0.01 | 0.07 | 0.02 | 87 | 1009.1 |
| 20260505115721 | 55 | 172 | 0.0 | 0.0 | 0.01 | 0.07 | 0.02 | 87 | 1009.2 |
| 20260505114719 | 54 | 159 | 0.0 | 0.0 | 0.01 | 0.07 | 0.02 | 87 | 1009.3 |
| 20260505114207 | 54 | 171 | 0.0 | 0.0 | 0.01 | 0.07 | 0.02 | 87 | 1009.3 |
| 20260505113726 | 54 | 188 | 0.0 | 0.0 | 0.01 | 0.07 | 0.02 | 87 | 1009.4 |
| 20260505113231 | 54 | 169 | 0.0 | 0.0 | 0.01 | 0.07 | 0.02 | 87 | 1009.4 |
| 20260505112217 | 54 | 178 | 0.0 | 0.0 | 0.00 | 0.06 | 0.02 | 87 | 1009.4 |
| 20260505111721 | 54 | 161 | 0.0 | 0.0 | 0.00 | 0.06 | 0.02 | 87 | 1009.4 |
| 20260505111210 | 54 | 145 | 0.0 | 0.0 | 0.00 | 0.06 | 0.02 | 87 | 1009.5 |
| 20260505110217 | 54 | 154 | 0.0 | 0.0 | 0.00 | 0.06 | 0.02 | 86 | 1009.5 |
| 20260505101725 | 54 | 271 | 0.0 | 0.0 | 0.00 | 0.06 | 0.02 | 83 | 1009.4 |
| 20260505101210 | 54 | 271 | 0.0 | 0.0 | 0.00 | 0.06 | 0.02 | 84 | 1009.4 |
| 20260505100711 | 54 | 271 | 0.0 | 0.0 | 0.00 | 0.06 | 0.02 | 84 | 1009.4 |
| 20260505095218 | 53 | 170 | 0.0 | 0.0 | 0.00 | 0.06 | 0.02 | 85 | 1009.4 |
| 20260505094217 | 53 | 174 | 0.0 | 0.0 | 0.00 | 0.06 | 0.02 | 85 | 1009.4 |
| 20260505093722 | 53 | 177 | 0.0 | 0.0 | 0.00 | 0.06 | 0.02 | 85 | 1009.4 |
| 20260505093212 | 53 | 167 | 0.0 | 0.0 | 0.01 | 0.06 | 0.02 | 86 | 1009.4 |
| 20260505092719 | 53 | 323 | 0.0 | 0.0 | 0.01 | 0.06 | 0.02 | 86 | 1009.4 |
| 20260505092220 | 53 | 323 | 0.0 | 0.0 | 0.01 | 0.06 | 0.02 | 85 | 1009.4 |
| 20260505091716 | 53 | 324 | 0.0 | 0.0 | 0.01 | 0.06 | 0.02 | 85 | 1009.4 |
| 20260505090711 | 52 | 309 | 0.0 | 0.0 | 0.02 | 0.06 | 0.02 | 84 | 1009.7 |
| 20260505090220 | 52 | 296 | 0.0 | 0.0 | 0.02 | 0.06 | 0.02 | 85 | 1009.8 |
| 20260505084727 | 52 | 173 | 0.0 | 0.0 | 0.02 | 0.06 | 0.02 | 86 | 1010.0 |
| 20260505084224 | 52 | 173 | 0.0 | 0.0 | 0.02 | 0.06 | 0.02 | 85 | 1010.1 |
| 20260505083716 | 52 | 173 | 0.0 | 0.0 | 0.01 | 0.06 | 0.01 | 85 | 1010.1 |
| 20260505083223 | 52 | 173 | 0.0 | 0.0 | 0.01 | 0.06 | 0.01 | 85 | 1010.1 |
| 20260505082716 | 52 | 173 | 0.0 | 0.0 | 0.01 | 0.06 | 0.01 | 85 | 1010.1 |
| 20260505082219 | 53 | 173 | 0.0 | 0.0 | 0.01 | 0.06 | 0.01 | 84 | 1010.2 |
| 20260505081220 | 53 | 176 | 0.0 | 0.0 | 0.00 | 0.05 | 0.00 | 83 | 1010.2 |
| 20260505080717 | 53 | 157 | 0.0 | 0.0 | 0.00 | 0.05 | 0.00 | 84 | 1010.2 |
| 20260505080227 | 53 | 150 | 0.0 | 0.0 | 0.00 | 0.05 | 0.00 | 82 | 1010.2 |
| 20260505075718 | 53 | 169 | 0.0 | 0.0 | 0.00 | 0.05 | 0.00 | 83 | 1010.2 |
| 20260505075209 | 53 | 168 | 0.0 | 0.0 | 0.00 | 0.05 | 0.00 | 82 | 1010.2 |
| 20260505074713 | 53 | 168 | 0.0 | 0.0 | 0.00 | 0.05 | 0.00 | 81 | 1010.2 |
| 20260505074226 | 53 | 168 | 0.0 | 0.0 | 0.00 | 0.05 | 0.00 | 82 | 1010.2 |
| 20260505073720 | 53 | 168 | 0.0 | 0.0 | 0.00 | 0.05 | 0.00 | 82 | 1010.2 |
| 20260505073212 | 53 | 168 | 0.0 | 0.0 | 0.00 | 0.05 | 0.00 | 84 | 1010.2 |
| 20260505072722 | 53 | 168 | 0.0 | 0.0 | 0.00 | 0.05 | 0.00 | 84 | 1010.2 |
| 20260505072226 | 53 | 172 | 0.0 | 0.0 | 0.00 | 0.05 | 0.00 | 85 | 1010.3 |
| 20260505071725 | 53 | 169 | 0.0 | 0.0 | 0.00 | 0.05 | 0.00 | 84 | 1010.2 |
| 20260505071213 | 53 | 186 | 0.0 | 0.0 | 0.00 | 0.05 | 0.00 | 84 | 1010.2 |
| 20260505070714 | 53 | 179 | 0.0 | 0.0 | 0.00 | 0.05 | 0.00 | 84 | 1010.3 |
| 20260505070221 | 52 | 184 | 0.0 | 0.0 | 0.00 | 0.05 | 0.00 | 85 | 1010.3 |
| 20260505065726 | 52 | 184 | 0.0 | 0.0 | 0.00 | 0.05 | 0.00 | 86 | 1010.4 |
| 20260505065223 | 52 | 184 | 0.0 | 0.0 | 0.00 | 0.05 | 0.00 | 88 | 1010.4 |
| 20260505064716 | 51 | 148 | 0.0 | 0.0 | 0.00 | 0.05 | 0.00 | 86 | 1010.4 |
| 20260505064225 | 51 | 148 | 0.0 | 0.0 | 0.00 | 0.05 | 0.00 | 86 | 1010.5 |
| 20260505063721 | 51 | 148 | 0.0 | 0.0 | 0.00 | 0.05 | 0.00 | 86 | 1010.5 |
| 20260505063218 | 51 | 148 | 0.0 | 0.0 | 0.00 | 0.05 | 0.00 | 87 | 1010.5 |
| 20260505062721 | 51 | 148 | 0.0 | 0.0 | 0.00 | 0.05 | 0.00 | 87 | 1010.6 |
| 20260505062224 | 51 | 148 | 0.0 | 0.0 | 0.00 | 0.05 | 0.00 | 87 | 1010.6 |
| 20260505061719 | 51 | 148 | 0.0 | 0.0 | 0.00 | 0.05 | 0.00 | 87 | 1010.6 |
| 20260505060718 | 50 | 148 | 0.0 | 0.0 | 0.00 | 0.05 | 0.00 | 88 | 1010.6 |
| 20260505060220 | 50 | 148 | 0.0 | 0.0 | 0.00 | 0.05 | 0.00 | 88 | 1010.6 |
| 20260505055715 | 50 | 344 | 0.0 | 0.0 | 0.00 | 0.05 | 0.00 | 88 | 1010.5 |
| 20260505055216 | 49 | 319 | 0.0 | 0.0 | 0.00 | 0.05 | 0.00 | 88 | 1010.6 |
| 20260505054717 | 49 | 157 | 0.0 | 0.0 | 0.00 | 0.05 | 0.00 | 87 | 1010.6 |
| 20260505053714 | 49 | 157 | 0.0 | 0.0 | 0.00 | 0.05 | 0.00 | 87 | 1010.7 |
| 20260505053220 | 49 | 157 | 0.0 | 0.0 | 0.00 | 0.05 | 0.00 | 87 | 1010.7 |
| 20260505052718 | 49 | 157 | 0.0 | 0.0 | 0.00 | 0.05 | 0.00 | 88 | 1010.7 |
| 20260505051710 | 49 | 144 | 0.0 | 0.0 | 0.00 | 0.05 | 0.00 | 88 | 1010.7 |
| 20260505051214 | 49 | 76 | 0.0 | 0.0 | 0.00 | 0.05 | 0.00 | 88 | 1010.6 |
| 20260505050749 | 48 | 24 | 0.0 | 0.0 | 0.00 | 0.05 | 0.00 | 88 | 1010.6 |
| 20260505050219 | 48 | 24 | 0.0 | 0.0 | 0.00 | 0.05 | 0.00 | 88 | 1010.7 |
| 20260505041716 | 48 | 5 | 0.0 | 0.0 | 0.00 | 0.05 | 0.00 | 88 | 1010.7 |
| 20260505040224 | 48 | 355 | 0.0 | 0.0 | 0.00 | 0.05 | 0.00 | 89 | 1010.8 |
| 20260505035217 | 48 | 355 | 0.0 | 0.0 | 0.00 | 0.05 | 0.00 | 89 | 1010.8 |
| 20260505034715 | 48 | 355 | 0.0 | 0.0 | 0.00 | 0.05 | 0.00 | 89 | 1010.7 |
| 20260505034219 | 48 | 333 | 0.0 | 0.0 | 0.00 | 0.05 | 0.00 | 89 | 1010.7 |
| 20260505033732 | 48 | 329 | 0.0 | 0.0 | 0.00 | 0.05 | 0.00 | 90 | 1010.7 |
| 20260505033220 | 48 | 325 | 0.0 | 0.0 | 0.00 | 0.05 | 0.00 | 90 | 1010.7 |
| 20260505031732 | 47 | 159 | 0.0 | 0.0 | 0.00 | 0.05 | 0.00 | 90 | 1011.1 |
| 20260505031215 | 47 | 159 | 0.0 | 0.0 | 0.00 | 0.05 | 0.00 | 90 | 1011.1 |
| 20260505030715 | 47 | 159 | 0.0 | 0.0 | 0.00 | 0.05 | 0.00 | 90 | 1011.2 |
| 20260505030217 | 47 | 159 | 0.0 | 0.0 | 0.00 | 0.05 | 0.00 | 90 | 1011.2 |
| 20260505025209 | 47 | 159 | 0.0 | 0.0 | 0.00 | 0.05 | 0.00 | 90 | 1011.3 |
| 20260505024720 | 47 | 159 | 0.0 | 0.0 | 0.00 | 0.05 | 0.00 | 89 | 1011.2 |
| 20260505024225 | 47 | 159 | 0.0 | 0.0 | 0.00 | 0.05 | 0.00 | 89 | 1011.3 |
| 20260505023715 | 47 | 159 | 0.0 | 0.0 | 0.00 | 0.05 | 0.00 | 89 | 1011.3 |
| 20260505023231 | 47 | 159 | 0.0 | 0.0 | 0.00 | 0.05 | 0.00 | 89 | 1011.3 |
| 20260505022221 | 47 | 35 | 0.0 | 0.0 | 0.00 | 0.05 | 0.00 | 89 | 1011.2 |
| 20260505021723 | 47 | 35 | 0.0 | 0.0 | 0.00 | 0.05 | 0.00 | 89 | 1011.3 |
| 20260505021217 | 47 | 329 | 0.0 | 0.0 | 0.00 | 0.05 | 0.00 | 89 | 1011.4 |
| 20260505020727 | 47 | 180 | 0.0 | 0.0 | 0.00 | 0.05 | 0.00 | 89 | 1011.5 |
| 20260505020223 | 47 | 180 | 0.0 | 0.0 | 0.00 | 0.05 | 0.00 | 89 | 1011.5 |
| 20260505015721 | 48 | 180 | 0.0 | 0.0 | 0.00 | 0.05 | 0.00 | 89 | 1011.6 |
| 20260505015223 | 48 | 180 | 0.0 | 0.0 | 0.00 | 0.05 | 0.00 | 89 | 1011.6 |
| 20260505014730 | 48 | 180 | 0.0 | 0.0 | 0.00 | 0.05 | 0.00 | 89 | 1011.6 |
| 20260505014220 | 48 | 98 | 0.0 | 0.0 | 0.00 | 0.05 | 0.00 | 89 | 1011.6 |
| 20260505012712 | 47 | 318 | 0.0 | 0.0 | 0.00 | 0.05 | 0.00 | 90 | 1011.8 |
| 20260505012221 | 47 | 351 | 0.0 | 0.0 | 0.00 | 0.05 | 0.00 | 90 | 1011.9 |
| 20260505011714 | 47 | 351 | 0.0 | 0.0 | 0.00 | 0.05 | 0.00 | 90 | 1012.0 |
| 20260505011208 | 47 | 355 | 0.0 | 0.0 | 0.00 | 0.05 | 0.00 | 90 | 1012.0 |
| 20260505010732 | 47 | 5 | 0.0 | 0.0 | 0.00 | 0.05 | 0.00 | 89 | 1012.1 |
| 20260505010227 | 47 | 46 | 0.0 | 0.0 | 0.00 | 0.05 | 0.00 | 89 | 1012.1 |
| 20260505005728 | 47 | 46 | 0.0 | 0.0 | 0.00 | 0.05 | 0.00 | 89 | 1012.2 |
| 20260505005217 | 48 | 53 | 0.0 | 0.0 | 0.00 | 0.05 | 0.00 | 89 | 1012.2 |
| 20260505004231 | 48 | 63 | 0.0 | 0.0 | 0.00 | 0.05 | 0.00 | 88 | 1012.5 |
| 20260505003213 | 48 | 63 | 0.0 | 0.0 | 0.00 | 0.05 | 0.00 | 89 | 1012.6 |
| 20260505001725 | 49 | 30 | 0.0 | 0.0 | 0.00 | 0.05 | 0.00 | 89 | 1012.7 |
| 20260505001219 | 49 | 30 | 0.0 | 0.0 | 0.00 | 0.05 | 0.00 | 89 | 1012.8 |
| 20260505000730 | 49 | 350 | 0.0 | 0.0 | 0.00 | 0.05 | 0.00 | 90 | 1012.8 |
| 20260504235708 | 49 | 350 | 0.0 | 0.0 | 0.00 | 0.05 | 0.00 | 90 | 1013.0 |
| 20260504235212 | 49 | 351 | 0.0 | 0.0 | 0.00 | 0.05 | 0.00 | 90 | 1013.0 |
| 20260504234713 | 49 | 355 | 0.0 | 0.0 | 0.00 | 0.05 | 0.00 | 90 | 1013.1 |
| 20260504234226 | 49 | 5 | 0.0 | 0.0 | 0.00 | 0.05 | 0.00 | 90 | 1013.1 |
| 20260504233707 | 49 | 13 | 0.0 | 0.0 | 0.00 | 0.05 | 0.00 | 90 | 1013.1 |
| 20260504233224 | 49 | 13 | 0.0 | 0.0 | 0.00 | 0.05 | 0.00 | 90 | 1013.1 |
| 20260504232219 | 49 | 343 | 0.0 | 0.0 | 0.00 | 0.05 | 0.00 | 90 | 1013.2 |
| 20260504231730 | 49 | 346 | 0.0 | 0.0 | 0.00 | 0.05 | 0.00 | 90 | 1013.2 |
| 20260504230733 | 49 | 346 | 0.0 | 0.0 | 0.00 | 0.05 | 0.00 | 90 | 1013.4 |
| 20260504230225 | 49 | 5 | 0.0 | 0.0 | 0.00 | 0.05 | 0.00 | 90 | 1013.4 |
| 20260504225722 | 49 | 5 | 0.0 | 0.0 | 0.00 | 0.05 | 0.00 | 90 | 1013.4 |
| 20260504225211 | 49 | 5 | 0.0 | 0.0 | 0.00 | 0.05 | 0.00 | 90 | 1013.4 |
| 20260504224712 | 49 | 5 | 0.0 | 0.0 | 0.00 | 0.05 | 0.00 | 90 | 1013.5 |
| 20260504224230 | 49 | 5 | 0.0 | 0.0 | 0.00 | 0.05 | 0.00 | 90 | 1013.4 |
| 20260504223718 | 49 | 355 | 0.0 | 0.0 | 0.00 | 0.05 | 0.00 | 90 | 1013.3 |
| 20260504223210 | 49 | 348 | 0.0 | 0.0 | 0.00 | 0.05 | 0.00 | 90 | 1013.3 |
| 20260504222710 | 49 | 77 | 0.0 | 0.0 | 0.00 | 0.05 | 0.00 | 90 | 1013.3 |
| 20260504221712 | 49 | 342 | 0.0 | 0.0 | 0.00 | 0.05 | 0.00 | 89 | 1013.3 |
| 20260504220728 | 49 | 330 | 0.0 | 0.0 | 0.00 | 0.05 | 0.00 | 89 | 1013.5 |
| 20260504220224 | 50 | 0 | 0.0 | 0.0 | 0.00 | 0.05 | 0.05 | 90 | 1013.5 |
| 20260504214223 | 50 | 0 | 0.0 | 0.0 | 0.00 | 0.05 | 0.05 | 90 | 1013.9 |
| 20260504213721 | 50 | 0 | 0.0 | 0.0 | 0.00 | 0.05 | 0.05 | 90 | 1013.9 |
| 20260504213221 | 50 | 0 | 0.0 | 0.0 | 0.00 | 0.05 | 0.05 | 90 | 1014.1 |
| 20260504212229 | 51 | 109 | 0.0 | 0.0 | 0.00 | 0.05 | 0.05 | 90 | 1014.1 |
| 20260504211726 | 50 | 109 | 0.0 | 0.0 | 0.00 | 0.05 | 0.05 | 90 | 1014.3 |
| 20260504211220 | 51 | 109 | 0.0 | 0.0 | 0.00 | 0.05 | 0.05 | 90 | 1014.3 |
| 20260504210732 | 51 | 109 | 0.0 | 0.0 | 0.00 | 0.05 | 0.05 | 90 | 1014.3 |
| 20260504210225 | 51 | 109 | 0.0 | 0.0 | 0.00 | 0.05 | 0.05 | 90 | 1014.3 |
| 20260504205730 | 51 | 109 | 0.0 | 0.0 | 0.00 | 0.05 | 0.05 | 90 | 1014.2 |
| 20260504205208 | 51 | 15 | 0.0 | 0.0 | 0.00 | 0.05 | 0.05 | 90 | 1014.3 |
| 20260504204726 | 51 | 18 | 0.0 | 0.0 | 0.00 | 0.05 | 0.05 | 90 | 1014.2 |
| 20260504204214 | 51 | 5 | 0.0 | 0.0 | 0.00 | 0.05 | 0.05 | 90 | 1014.2 |
| 20260504203709 | 51 | 5 | 0.0 | 0.0 | 0.00 | 0.05 | 0.05 | 90 | 1014.2 |
| 20260504203223 | 51 | 5 | 0.0 | 0.0 | 0.00 | 0.05 | 0.05 | 90 | 1014.3 |
| 20260504202715 | 51 | 5 | 0.0 | 0.0 | 0.00 | 0.05 | 0.05 | 90 | 1014.2 |
| 20260504202214 | 51 | 5 | 0.0 | 0.0 | 0.00 | 0.05 | 0.05 | 90 | 1014.3 |
| 20260504201724 | 51 | 5 | 0.0 | 0.0 | 0.00 | 0.05 | 0.05 | 90 | 1014.3 |
| 20260504195722 | 51 | 5 | 0.0 | 0.0 | 0.00 | 0.05 | 0.05 | 89 | 1014.1 |
| 20260504195221 | 51 | 5 | 0.0 | 0.0 | 0.00 | 0.05 | 0.05 | 89 | 1014.0 |
| 20260504194214 | 51 | 5 | 0.0 | 0.0 | 0.00 | 0.05 | 0.05 | 89 | 1014.0 |
| 20260504193718 | 51 | 5 | 0.0 | 0.0 | 0.00 | 0.05 | 0.05 | 89 | 1014.0 |
| 20260504192723 | 51 | 5 | 0.0 | 0.0 | 0.00 | 0.05 | 0.05 | 88 | 1013.9 |
| 20260504192216 | 51 | 5 | 0.0 | 0.0 | 0.00 | 0.05 | 0.05 | 89 | 1013.9 |
| 20260504191215 | 51 | 5 | 0.0 | 0.0 | 0.00 | 0.05 | 0.05 | 88 | 1013.9 |
| 20260504190722 | 51 | 5 | 0.0 | 0.0 | 0.00 | 0.05 | 0.05 | 88 | 1013.9 |
| 20260504190225 | 52 | 5 | 0.0 | 0.0 | 0.00 | 0.05 | 0.05 | 88 | 1013.8 |
| 20260504185726 | 52 | 5 | 0.0 | 0.0 | 0.00 | 0.05 | 0.05 | 88 | 1013.8 |